DAH3005 LPPT-DAAG

Flight info

Callsign DAH3005
Flight time N/A
Altitude 36000
Route DUZOP DCT LASIB DCT OXACA DCT ALCOL DCT KOSEL DCT DIMER DCT RINDI DCT MAR
Aircraft B738/M-SDE2E3FGHIRWXY/LB1

Departure

Time N/A
Airport Lisbon Humberto Delgado Airport (LPPT)

Arrival

Time 2026-05-07 12:35
Airport Houari Boumediene Airport (DAAG)
Time Latitude Longitude Altitude Speed Heading
2026-05-07 12:17 36.85248 1.70731 17200 ft 394 kts 102°
2026-05-07 12:17 36.84741 1.74082 16696 ft 391 kts 102°
2026-05-07 12:17 36.84238 1.77404 16213 ft 388 kts 102°
2026-05-07 12:17 36.83739 1.80693 15734 ft 385 kts 102°
2026-05-07 12:18 36.83248 1.83923 15269 ft 382 kts 102°
2026-05-07 12:18 36.82753 1.87171 14792 ft 379 kts 102°
2026-05-07 12:18 36.82261 1.90391 14329 ft 376 kts 102°
2026-05-07 12:18 36.81771 1.93593 13861 ft 374 kts 102°
2026-05-07 12:19 36.81284 1.96771 13362 ft 372 kts 102°
2026-05-07 12:19 36.80798 1.99940 12859 ft 369 kts 101°
2026-05-07 12:19 36.80316 2.03075 12375 ft 366 kts 102°
2026-05-07 12:19 36.79843 2.06145 11929 ft 362 kts 102°
2026-05-07 12:20 36.79370 2.09210 11480 ft 358 kts 102°
2026-05-07 12:20 36.78900 2.12252 11032 ft 355 kts 102°
2026-05-07 12:20 36.78436 2.15248 10771 ft 346 kts 102°
2026-05-07 12:20 36.77987 2.18143 10627 ft 334 kts 102°
2026-05-07 12:21 36.77553 2.20943 10490 ft 323 kts 102°
2026-05-07 12:21 36.77132 2.23650 10361 ft 313 kts 102°
2026-05-07 12:21 36.76727 2.26244 10234 ft 303 kts 102°
2026-05-07 12:21 36.76330 2.28787 10113 ft 294 kts 102°
2026-05-07 12:22 36.75944 2.31253 9996 ft 285 kts 102°
2026-05-07 12:22 36.75569 2.33650 9862 ft 277 kts 102°
2026-05-07 12:22 36.75199 2.36005 9577 ft 276 kts 102°
2026-05-07 12:22 36.74833 2.38338 9313 ft 273 kts 102°
2026-05-07 12:23 36.74469 2.40653 9039 ft 271 kts 102°
2026-05-07 12:23 36.74106 2.42955 8773 ft 269 kts 102°
2026-05-07 12:23 36.73751 2.45209 8650 ft 258 kts 102°
2026-05-07 12:23 36.73415 2.47339 8552 ft 244 kts 102°
2026-05-07 12:24 36.73097 2.49358 8441 ft 231 kts 102°
2026-05-07 12:24 36.72792 2.51282 8068 ft 230 kts 102°
2026-05-07 12:24 36.72478 2.53262 7675 ft 231 kts 102°
2026-05-07 12:24 36.72172 2.55194 7408 ft 226 kts 102°
2026-05-07 12:25 36.71872 2.57084 7175 ft 219 kts 102°
2026-05-07 12:25 36.71580 2.58923 6946 ft 213 kts 102°
2026-05-07 12:25 36.71295 2.60715 6736 ft 209 kts 102°
2026-05-07 12:25 36.71013 2.62483 6541 ft 208 kts 102°
2026-05-07 12:26 36.70731 2.64252 6351 ft 209 kts 102°
2026-05-07 12:26 36.70451 2.66026 6146 ft 209 kts 100°
2026-05-07 12:26 36.70329 2.67829 5939 ft 209 kts 92°
2026-05-07 12:26 36.70294 2.69636 5735 ft 208 kts 92°
2026-05-07 12:27 36.70261 2.71440 5550 ft 207 kts 92°
2026-05-07 12:27 36.70228 2.73115 5471 ft 200 kts 92°
2026-05-07 12:27 36.70189 2.74874 5388 ft 199 kts 92°
2026-05-07 12:27 36.70149 2.76618 5326 ft 203 kts 92°
2026-05-07 12:28 36.70108 2.78391 5260 ft 206 kts 92°
2026-05-07 12:28 36.70080 2.80156 5157 ft 206 kts 91°
2026-05-07 12:28 36.70069 2.81957 4988 ft 209 kts 91°
2026-05-07 12:28 36.70039 2.83773 4786 ft 210 kts 92°
2026-05-07 12:29 36.69998 2.85572 4545 ft 205 kts 92°
2026-05-07 12:29 36.69953 2.87337 4321 ft 200 kts 92°
2026-05-07 12:29 36.69908 2.89058 4107 ft 196 kts 92°
2026-05-07 12:29 36.69864 2.90720 3902 ft 188 kts 92°
2026-05-07 12:30 36.69823 2.92293 3796 ft 177 kts 92°
2026-05-07 12:30 36.69782 2.93875 3650 ft 186 kts 92°
2026-05-07 12:30 36.69740 2.95482 3458 ft 189 kts 92°
2026-05-07 12:30 36.69699 2.97118 3208 ft 188 kts 92°
2026-05-07 12:31 36.69658 2.98726 2978 ft 182 kts 92°
2026-05-07 12:31 36.69618 3.00263 2718 ft 168 kts 92°
2026-05-07 12:31 36.69584 3.01633 2520 ft 152 kts 92°
2026-05-07 12:31 36.69552 3.02924 2315 ft 147 kts 92°
2026-05-07 12:32 36.69520 3.04190 2129 ft 148 kts 91°
2026-05-07 12:32 36.69488 3.05478 1932 ft 148 kts 91°
2026-05-07 12:32 36.69456 3.06763 1728 ft 148 kts 91°
2026-05-07 12:32 36.69424 3.08040 1517 ft 147 kts 91°
2026-05-07 12:33 36.69363 3.10579 1131 ft 145 kts 91°
2026-05-07 12:33 36.69332 3.11820 928 ft 141 kts 91°
2026-05-07 12:33 36.69304 3.13014 736 ft 135 kts 92°
2026-05-07 12:34 36.69276 3.14180 561 ft 134 kts 92°
2026-05-07 12:34 36.69248 3.15329 380 ft 134 kts 94°
2026-05-07 12:34 36.69220 3.16497 197 ft 136 kts 94°
2026-05-07 12:34 36.69192 3.17655 77 ft 127 kts 93°
2026-05-07 12:35 36.69175 3.18572 83 ft 91 kts 92°
2026-05-07 12:35 36.69158 3.19236 74 ft 64 kts 90°
2026-05-07 12:35 36.69151 3.19696 72 ft 35 kts 91°
2026-05-07 12:35 36.69205 3.19865 73 ft 17 kts 62°
2026-05-07 12:36 36.69259 3.19994 67 ft 17 kts 63°
2026-05-07 12:36 36.69289 3.20113 69 ft 14 kts 81°
2026-05-07 12:36 36.69301 3.20227 69 ft 12 kts 92°
2026-05-07 12:36 36.69345 3.20283 68 ft 9 kts
2026-05-07 12:37 36.69404 3.20290 69 ft 8 kts
2026-05-07 12:37 36.69450 3.20328 66 ft 8 kts 48°
2026-05-07 12:37 36.69497 3.20359 61 ft 8 kts
2026-05-07 12:37 36.69544 3.20338 60 ft 8 kts 325°
2026-05-07 12:38 36.69587 3.20302 65 ft 7 kts 326°
2026-05-07 12:38 36.69608 3.20285 61 ft 0 kts 326°